TimeCDT,TemperatureF,Dew PointF,Humidity,Sea Level PressureIn,VisibilityMPH,Wind Direction,Wind SpeedMPH,Gust SpeedMPH,PrecipitationIn,Events,Conditions,WindDirDegrees,DateUTC
12:15 AM,64.4,62.6,94,29.73,10.0,South,19.6,-,N/A,,Overcast,190,2012-10-17 05:15:00
12:35 AM,66.2,60.8,83,29.73,10.0,South,16.1,24.2,N/A,,Overcast,180,2012-10-17 05:35:00
1:35 AM,64.4,60.8,88,29.73,10.0,South,13.8,25.3,N/A,,Overcast,180,2012-10-17 06:35:00
1:55 AM,64.4,60.8,88,29.73,10.0,South,13.8,20.7,N/A,,Overcast,180,2012-10-17 06:55:00
2:15 AM,64.4,60.8,88,29.73,10.0,South,16.1,21.9,N/A,,Overcast,180,2012-10-17 07:15:00
2:35 AM,64.4,60.8,88,29.73,10.0,South,16.1,-,N/A,,Overcast,170,2012-10-17 07:35:00
3:35 AM,66.2,60.8,83,29.71,10.0,SSE,11.5,-,N/A,,Overcast,160,2012-10-17 08:35:00
3:55 AM,64.4,60.8,88,29.70,10.0,SSE,12.7,-,N/A,,Overcast,160,2012-10-17 08:55:00
4:15 AM,64.4,60.8,88,29.69,10.0,SSE,12.7,16.1,N/A,,Overcast,160,2012-10-17 09:15:00
5:15 AM,64.4,60.8,88,29.69,10.0,South,11.5,17.3,N/A,,Overcast,170,2012-10-17 10:15:00
5:35 AM,64.4,60.8,88,29.68,10.0,South,10.4,17.3,N/A,,Overcast,170,2012-10-17 10:35:00
5:55 AM,64.4,60.8,88,29.67,10.0,South,12.7,17.3,N/A,,Overcast,170,2012-10-17 10:55:00
6:35 AM,66.2,62.6,88,29.65,10.0,South,18.4,27.6,N/A,,Overcast,180,2012-10-17 11:35:00
6:55 AM,64.4,62.6,94,29.65,10.0,South,17.3,25.3,N/A,,Overcast,180,2012-10-17 11:55:00
7:55 AM,66.2,62.6,88,29.65,10.0,South,18.4,23.0,N/A,,Overcast,180,2012-10-17 12:55:00
8:15 AM,66.2,62.6,88,29.64,7.0,South,20.7,26.5,N/A,,Overcast,180,2012-10-17 13:15:00
8:35 AM,66.2,62.6,88,29.65,7.0,South,17.3,24.2,N/A,,Overcast,180,2012-10-17 13:35:00
9:55 AM,69.8,62.6,78,29.64,10.0,South,20.7,28.8,N/A,,Overcast,190,2012-10-17 14:55:00
11:55 AM,78.8,62.6,57,29.62,10.0,SSW,18.4,27.6,N/A,,Scattered Clouds,200,2012-10-17 16:55:00
12:35 PM,82.4,62.6,51,29.62,10.0,SW,18.4,-,N/A,,Scattered Clouds,220,2012-10-17 17:35:00
12:55 PM,82.4,62.6,51,29.61,10.0,SSW,17.3,23.0,N/A,,Mostly Cloudy,210,2012-10-17 17:55:00
1:15 PM,84.2,59.0,42,29.61,10.0,WSW,20.7,25.3,N/A,,Scattered Clouds,250,2012-10-17 18:15:00
1:35 PM,86.0,55.4,35,29.60,10.0,WSW,16.1,25.3,N/A,,Clear,250,2012-10-17 18:35:00
1:55 PM,86.0,55.4,35,29.60,10.0,West,15.0,21.9,N/A,,Clear,260,2012-10-17 18:55:00
2:15 PM,86.0,53.6,33,29.60,10.0,WSW,13.8,26.5,N/A,,Clear,250,2012-10-17 19:15:00
2:55 PM,86.0,53.6,33,29.58,10.0,WSW,15.0,21.9,N/A,,Clear,240,2012-10-17 19:55:00
3:15 PM,87.8,50.0,27,29.59,10.0,West,16.1,19.6,N/A,,Clear,270,2012-10-17 20:15:00
3:35 PM,86.0,44.6,23,29.60,10.0,WNW,15.0,23.0,N/A,,Clear,290,2012-10-17 20:35:00
3:55 PM,86.0,44.6,23,29.60,10.0,WNW,16.1,21.9,N/A,,Clear,290,2012-10-17 20:55:00
4:15 PM,86.0,46.4,25,29.62,10.0,WNW,10.4,-,N/A,,Clear,290,2012-10-17 21:15:00
4:35 PM,86.0,46.4,25,29.62,10.0,WNW,13.8,-,N/A,,Clear,290,2012-10-17 21:35:00
4:55 PM,84.2,46.4,27,29.62,10.0,NW,13.8,18.4,N/A,,Clear,320,2012-10-17 21:55:00
5:15 PM,82.4,46.4,28,29.64,10.0,NW,12.7,19.6,N/A,,Clear,310,2012-10-17 22:15:00
5:35 PM,82.4,46.4,28,29.65,10.0,NW,12.7,21.9,N/A,,Clear,310,2012-10-17 22:35:00
5:55 PM,82.4,48.2,30,29.65,10.0,NW,10.4,-,N/A,,Clear,310,2012-10-17 22:55:00
6:15 PM,80.6,48.2,32,29.67,10.0,NW,13.8,-,N/A,,Clear,310,2012-10-17 23:15:00
6:35 PM,80.6,46.4,30,29.67,10.0,NW,10.4,-,N/A,,Clear,320,2012-10-17 23:35:00
6:55 PM,77.0,46.4,34,29.69,10.0,NW,8.1,-,N/A,,Clear,320,2012-10-17 23:55:00
7:15 PM,77.0,48.2,36,29.70,10.0,NNW,8.1,-,N/A,,Clear,330,2012-10-18 00:15:00
7:35 PM,73.4,46.4,38,29.71,10.0,NNW,10.4,-,N/A,,Clear,330,2012-10-18 00:35:00
7:55 PM,73.4,46.4,38,29.73,10.0,NNW,8.1,-,N/A,,Clear,330,2012-10-18 00:55:00
8:15 PM,71.6,46.4,41,29.73,10.0,NNW,4.6,-,N/A,,Clear,330,2012-10-18 01:15:00
8:35 PM,69.8,46.4,43,29.75,10.0,NNW,3.5,-,N/A,,Clear,330,2012-10-18 01:35:00
8:55 PM,69.8,46.4,43,29.75,10.0,NNW,6.9,-,N/A,,Clear,330,2012-10-18 01:55:00
9:15 PM,69.8,46.4,43,29.76,10.0,NW,9.2,-,N/A,,Clear,320,2012-10-18 02:15:00
9:35 PM,69.8,42.8,38,29.77,10.0,NNW,9.2,-,N/A,,Clear,330,2012-10-18 02:35:00
9:55 PM,68.0,42.8,40,29.78,10.0,North,8.1,-,N/A,,Clear,350,2012-10-18 02:55:00
10:15 PM,66.2,42.8,43,29.79,10.0,North,8.1,-,N/A,,Clear,360,2012-10-18 03:15:00
10:35 PM,64.4,42.8,45,29.79,10.0,North,6.9,-,N/A,,Clear,360,2012-10-18 03:35:00
10:55 PM,64.4,42.8,45,29.80,10.0,North,8.1,-,N/A,,Clear,360,2012-10-18 03:55:00
11:15 PM,62.6,42.8,48,29.80,10.0,North,5.8,-,N/A,,Clear,360,2012-10-18 04:15:00
11:35 PM,62.6,42.8,48,29.81,10.0,North,5.8,-,N/A,,Clear,360,2012-10-18 04:35:00